Location: Huisseau
(47.5933°N, 1.4533°E)
Time: 19:28:09
(UTC+00:00)

CENTAUR R/B - Pass Details

Date: 26 November 2025
Orbit: 633 x 1547 km, 63.4° (Epoch: 06 December)

Event Time Altitude Azimuth Distance (km) Brightness Sun altitude
Rises 17:38:45 0° 181° (S) 3,162 5.4 -14.9°
Reaches altitude 10° 17:41:12 10° 169° (S) 2,345 4.6 -15.3°
Maximum altitude 17:45:47 29° 111° (ESE) 1,596 3.2 -16.1°
Enters shadow 17:47:34 25° 83° (E) 1,818 3.3 -16.4°
